Temperature
9 9 8 8 8 8 7 7 7 7 7 6 6 6 6 6 6 5 5 5 5 5 4 4 4 4 4 3 3 3 3 2 2 3 3 4 4 4 4 5 5 5 5
8 8 8 7 7 7 7 7 6 6 6 6 6 5 5 5 5 5 5 4 4 4 4 4 4 3 3 3 3 2 2 2 2 2 3 3 3 3 3 4 4 4 4
8 8 7 7 7 6 6 6 6 6 5 5 5 5 5 5 4 4 4 4 4 4 3 3 3 3 2 2 2 2 2 2 2 1 2 2 2 2 2 3 3 3 4
7 7 7 6 6 6 6 5 5 5 5 5 5 4 4 4 4 4 3 3 3 3 3 2 2 2 2 2 2 2 1 1 1 1 1 1 1 2 2 2 2 3 3
7 6 6 6 5 5 5 5 5 4 4 4 4 4 4 3 3 3 3 2 2 2 2 2 2 1 1 1 1 1 1 1 0 0 0 0 0 1 1 1 1 2 2
6 6 5 5 5 5 4 4 4 4 4 3 3 3 3 3 3 2 2 2 2 2 1 1 1 1 1 1 1 1 0 -0 -0 -0 -1 -1 -0 -0 0 0 0 1 1
5 5 5 5 4 4 4 4 3 3 3 3 3 3 3 3 2 2 1 1 1 1 1 1 0 0 0 0 0 0 0 -0 -1 -1 -1 -1 -1 -0 -0 -0 0 0 0
5 4 4 4 4 4 3 3 3 3 2 2 2 2 2 2 2 1 1 1 1 0 0 0 -0 -0 -0 -0 -0 -0 -0 -0 -1 -1 -1 -1 -1 -1 -1 -0 -0 -0 0
4 4 3 3 3 3 3 2 2 2 2 2 2 2 2 2 1 1 0 0 0 -0 -0 -0 -1 -1 -1 -1 -1 -1 -1 -1 -1 -1 -1 -1 -1 -1 -1 -1 -1 -1 -0
3 3 3 3 2 2 2 2 1 1 1 1 1 1 1 1 1 0 -0 -0 -0 -0 -1 -1 -1 -1 -1 -1 -2 -1 -2 -1 -1 -1 -1 -1 -1 -1 -1 -1 -1 -1 -1
3 2 2 2 2 1 1 1 1 0 0 0 0 0 0 -0 -0 -0 -1 -1 -1 -1 -1 -1 -1 -2 -2 -2 -2 -2 -2 -2 -2 -2 -1 -1 -1 -1 -1 -1 -1 -1 -1
2 2 1 1 1 1 0 0 -0 -0 -0 -0 -1 -0 -1 -1 -1 -1 -2 -2 -2 -2 -2 -2 -2 -2 -2 -2 -2 -2 -2 -2 -2 -2 -2 -2 -2 -1 -1 -1 -1 -1 -1
1 1 1 0 0 -0 -0 -0 -1 -1 -1 -1 -1 -2 -2 -2 -2 -2 -2 -2 -2 -3 -3 -3 -3 -3 -3 -3 -3 -3 -3 -3 -3 -3 -3 -2 -2 -2 -2 -2 -2 -1 -1
0 0 -0 -0 -1 -1 -1 -1 -1 -2 -2 -2 -2 -3 -3 -3 -3 -3 -3 -3 -3 -3 -3 -3 -3 -3 -3 -3 -3 -3 -3 -3 -3 -3 -3 -3 -3 -2 -2 -2 -2 -2 -2
-0 -1 -1 -1 -1 -2 -2 -2 -2 -2 -3 -3 -3 -3 -4 -4 -4 -4 -4 -4 -4 -4 -3 -3 -3 -3 -3 -3 -3 -3 -3 -3 -3 -3 -3 -3 -3 -3 -3 -2 -2 -2 -2
-1 -1 -2 -2 -2 -2 -2 -2 -3 -3 -3 -3 -4 -4 -4 -4 -4 -4 -4 -4 -4 -4 -4 -4 -4 -4 -4 -4 -4 -4 -4 -4 -4 -4 -4 -4 -3 -3 -3 -3 -3 -3 -3
-2 -2 -2 -2 -3 -3 -3 -3 -3 -3 -3 -4 -4 -4 -4 -4 -4 -4 -4 -4 -4 -4 -4 -4 -4 -5 -5 -5 -5 -5 -5 -4 -4 -4 -4 -4 -4 -4 -4 -3 -3 -3 -3
-2 -3 -3 -3 -3 -4 -4 -4 -4 -4 -4 -4 -4 -4 -4 -4 -4 -4 -5 -4 -4 -4 -4 -5 -5 -5 -5 -5 -5 -5 -5 -5 -5 -5 -4 -4 -4 -4 -4 -4 -4 -4 -4
-3 -3 -3 -4 -4 -4 -4 -4 -5 -5 -5 -5 -5 -5 -5 -5 -5 -5 -5 -5 -5 -5 -5 -5 -5 -5 -5 -5 -5 -5 -5 -5 -5 -5 -5 -5 -5 -5 -5 -4 -4 -4 -4
-4 -4 -4 -4 -4 -4 -4 -5 -5 -5 -5 -5 -5 -5 -5 -5 -5 -5 -5 -5 -6 -5 -5 -6 -6 -5 -5 -5 -5 -5 -5 -5 -5 -5 -5 -5 -5 -5 -5 -5 -5 -5 -5
-4 -4 -4 -4 -5 -5 -5 -5 -5 -6 -6 -6 -6 -6 -6 -6 -6 -6 -6 -6 -6 -6 -6 -6 -6 -6 -6 -6 -6 -5 -5 -5 -5 -5 -6 -5 -5 -5 -5 -5 -5 -5 -5
-4 -4 -5 -5 -5 -5 -6 -6 -6 -6 -6 -6 -6 -6 -6 -7 -7 -7 -7 -6 -6 -6 -6 -6 -6 -6 -6 -6 -6 -6 -6 -6 -6 -6 -6 -6 -5 -5 -5 -5 -5 -5 -5
-5 -5 -5 -5 -6 -6 -6 -6 -6 -6 -6 -6 -7 -7 -7 -7 -7 -7 -7 -7 -7 -6 -6 -6 -6 -6 -6 -6 -6 -6 -6 -6 -6 -6 -6 -6 -6 -6 -6 -6 -6 -6 -5
-5 -5 -6 -6 -6 -6 -6 -7 -7 -7 -7 -7 -7 -7 -7 -7 -7 -7 -7 -7 -7 -7 -6 -6 -6 -6 -6 -6 -6 -6 -6 -6 -6 -6 -6 -6 -6 -6 -6 -6 -6 -6 -6
-6 -6 -6 -6 -7 -7 -7 -7 -7 -7 -7 -7 -7 -7 -7 -7 -7 -7 -7 -7 -7 -7 -7 -6 -6 -6 -6 -6 -6 -6 -6 -6 -6 -6 -6 -6 -6 -6 -6 -6 -6 -6 -6
-6 -7 -7 -7 -7 -7 -7 -8 -8 -8 -8 -8 -8 -8 -8 -8 -7 -7 -7 -7 -7 -7 -7 -7 -7 -6 -6 -6 -6 -6 -6 -6 -6 -6 -6 -6 -6 -5 -5 -6 -6 -6 -6
Wind_Speed
3 2 2 1 0 1 0 1 2 2 3 3 3 4 4 4 4 4 5 5 6 6 6 7 7 6 5 5 5 5 6 6 10 9 6 6 6 8 9 9 10 9 10
3 3 2 1 1 1 1 2 2 3 3 4 4 4 4 5 4 5 6 6 6 7 7 7 7 6 6 6 5 6 7 7 8 12 9 6 7 7 8 8 8 9 9
3 3 2 1 1 1 2 2 3 3 4 4 4 4 5 5 5 5 5 6 6 6 7 7 7 7 7 6 7 7 7 7 7 9 10 7 6 6 7 7 7 7 8
3 3 2 1 0 1 2 2 3 3 4 4 4 5 5 5 5 6 6 6 6 6 7 7 7 7 8 8 7 7 7 7 7 8 9 8 7 6 5 7 7 6 6
3 2 1 0 1 1 2 2 3 4 4 5 5 5 5 5 5 5 5 6 6 6 7 7 7 9 10 9 7 6 6 7 7 7 8 8 7 6 6 5 7 6 6
2 1 1 0 1 2 2 3 4 4 5 5 5 6 6 5 8 9 8 6 5 6 7 7 8 8 10 11 12 12 10 9 8 8 8 9 9 7 6 7 6 6 6
1 1 0 0 1 2 3 4 4 4 4 5 5 5 6 7 9 10 10 6 5 6 7 7 7 8 10 8 10 12 12 13 13 10 10 10 9 8 8 8 7 7 8
1 0 0 0 1 2 3 4 4 4 4 5 6 6 6 7 10 10 11 6 6 6 7 7 8 8 8 9 8 8 9 10 11 10 10 10 10 8 8 8 8 7 6
1 1 1 1 2 2 3 4 4 4 5 5 6 6 6 8 10 11 10 5 5 7 7 7 7 8 12 13 9 9 9 9 10 13 13 13 14 13 9 5 5 4 6
1 1 1 1 2 2 3 4 4 4 5 5 6 5 6 7 10 11 11 4 5 6 6 6 9 10 13 13 8 7 9 8 7 8 9 10 9 9 10 6 5 5 4
1 1 1 1 2 2 3 3 4 4 5 5 6 6 5 7 9 11 11 5 5 6 6 5 6 12 13 13 10 7 10 9 7 7 6 6 5 5 4 4 3 4 4
1 1 2 2 2 2 2 3 4 4 5 5 6 6 5 6 8 9 11 10 9 6 6 5 6 11 12 12 9 9 11 9 5 5 5 5 5 5 4 4 4 3 4
1 1 2 2 2 2 2 3 3 3 3 5 5 6 6 6 7 11 11 11 11 7 6 9 10 11 10 8 9 10 8 5 4 5 5 5 4 5 4 3 2 2 2
1 2 2 2 3 3 2 2 3 3 4 5 5 6 6 6 6 5 5 6 8 7 6 7 9 9 7 7 7 6 4 4 4 4 5 4 4 4 4 2 3 2 2
1 2 2 2 2 3 3 3 4 4 4 5 5 5 6 7 8 12 9 6 5 6 5 3 3 4 4 4 4 4 4 4 4 3 3 4 4 4 4 3 2 2 1
1 2 2 2 2 3 3 5 6 7 9 9 9 8 7 10 13 13 12 12 11 9 5 3 4 4 4 5 5 5 4 4 3 3 3 3 4 4 4 3 2 1 1
1 2 2 2 3 3 3 4 6 7 9 9 10 11 10 12 12 12 12 11 9 8 4 3 4 4 4 4 4 4 4 4 4 3 3 3 3 3 3 3 2 1 1
2 2 2 2 3 3 3 3 4 5 6 6 8 11 11 12 12 12 11 8 5 5 3 4 4 4 4 4 4 4 4 4 4 3 3 3 3 3 3 2 2 1 1
2 2 2 2 2 3 3 3 3 4 5 6 6 7 10 11 11 10 9 4 4 4 4 4 4 5 5 4 4 4 3 4 4 3 3 3 3 3 2 2 2 2 1
2 3 3 2 2 2 3 3 3 4 4 5 5 6 6 7 5 6 5 4 4 4 4 5 5 5 5 4 3 3 3 3 3 3 3 3 3 2 2 2 2 1 0
2 3 4 3 2 2 3 3 3 4 4 5 5 6 8 5 5 5 5 5 5 5 5 5 5 5 4 4 3 3 3 3 3 3 3 3 2 2 2 1 1 1 1
1 2 2 2 2 2 3 3 3 3 4 5 5 6 9 5 5 5 5 5 5 5 5 5 4 4 4 3 3 3 3 4 3 3 3 3 2 2 1 1 1 0 1
1 2 2 2 2 4 4 3 3 3 4 4 5 5 5 5 5 5 6 6 5 5 5 5 5 4 4 4 4 3 3 4 4 3 3 3 2 1 1 1 0 1 1
1 2 2 2 2 3 3 3 3 4 4 4 4 5 5 5 5 6 6 6 6 6 5 5 5 5 5 5 4 4 4 4 4 3 3 2 2 1 1 0 0 1 2
1 2 2 2 2 3 3 3 3 4 4 4 5 5 5 5 5 6 6 6 6 6 7 6 5 4 5 5 5 4 6 7 6 3 1 1 1 1 1 1 1 2 2
2 2 2 2 2 3 3 3 3 4 4 4 5 5 5 5 5 6 6 6 6 6 6 5 5 6 6 5 5 6 7 7 6 5 2 0 0 0 1 1 2 2 2
Wind_Direction
132 128 120 101 72 79 17 286 285 295 299 296 292 289 287 283 274 265 264 265 261 258 254 252 252 248 250 252 250 251 254 256 272 283 276 278 272 277 287 285 282 279 279
138 127 123 99 58 50 340 310 313 312 310 306 304 303 300 295 287 278 275 271 265 263 258 255 255 254 250 250 249 252 256 257 265 282 288 285 274 274 278 279 283 283 279
128 120 109 92 54 1 326 323 329 323 320 319 316 306 299 295 291 284 277 274 269 265 262 258 259 256 257 258 254 255 258 263 262 274 283 285 283 282 284 285 282 278 282
124 116 108 90 350 330 332 332 326 321 319 314 306 299 293 290 287 283 279 274 272 271 270 261 256 253 256 260 260 258 262 264 267 272 281 287 287 285 279 285 289 282 283
122 113 119 36 346 345 339 329 326 325 322 313 309 305 294 287 283 282 278 278 276 278 277 271 262 264 267 266 269 264 265 268 271 275 281 286 287 294 287 284 282 286 284
126 144 138 63 355 337 328 329 331 328 325 322 312 306 302 295 297 296 293 282 280 280 283 284 278 269 274 276 278 277 272 268 269 269 276 279 282 284 287 285 284 288 286
143 144 90 43 337 323 329 336 329 322 322 319 311 307 301 299 304 302 301 293 281 278 278 279 285 286 286 271 276 279 275 276 272 266 268 271 276 277 276 275 275 278 275
102 38 346 330 316 321 329 325 319 318 317 313 312 309 305 308 311 307 305 293 277 274 272 266 272 278 281 282 274 272 268 268 271 269 263 266 269 271 266 265 269 274 281
60 297 286 285 301 314 316 314 314 317 318 313 309 308 306 307 312 312 308 285 279 275 272 270 274 274 286 294 287 281 282 280 281 280 281 281 283 283 280 275 270 275 284
273 287 302 301 295 300 303 307 311 313 311 314 312 307 301 299 308 312 312 290 288 288 282 275 281 287 292 295 286 281 285 290 295 296 291 292 290 288 283 261 251 262 279
311 333 332 321 306 297 304 310 315 318 320 320 315 308 302 302 308 312 314 305 292 291 288 284 282 293 295 296 295 281 284 293 289 288 289 290 293 290 284 272 260 249 255
20 340 325 319 317 324 323 319 319 319 322 323 323 319 311 306 310 311 314 313 311 296 287 287 290 298 299 299 298 294 298 302 294 291 291 292 296 301 295 285 278 270 265
15 331 323 329 328 320 313 313 319 319 319 320 320 319 317 313 308 313 316 316 314 306 292 301 306 309 307 300 301 305 305 295 291 291 290 291 292 291 291 296 302 301 322
359 332 331 331 325 322 316 309 308 308 308 309 311 312 313 313 311 311 306 307 311 307 299 303 311 313 313 309 307 306 300 289 288 284 290 295 302 307 302 300 299 309 331
347 333 329 322 315 315 314 303 300 286 291 302 299 299 306 307 309 318 319 315 313 306 313 310 318 316 316 314 314 309 306 306 302 297 297 302 309 315 315 319 307 311 307
328 322 314 313 313 313 314 318 316 314 316 317 315 310 305 308 315 320 322 324 326 326 329 319 313 311 312 314 314 314 311 307 302 298 299 298 303 312 319 328 327 326 328
291 297 300 307 308 310 313 316 318 325 326 327 329 329 328 327 327 327 327 327 330 335 334 318 313 310 308 308 306 304 307 308 305 302 301 304 309 316 316 319 325 329 335
302 294 299 290 291 293 294 299 304 312 320 322 325 329 333 335 335 334 333 337 334 341 330 317 313 311 308 304 302 302 305 309 312 311 311 313 317 320 317 316 312 311 332
299 292 292 289 289 290 293 299 304 307 309 313 321 327 334 335 336 339 343 343 325 323 321 315 311 310 310 308 307 307 309 311 314 317 316 317 321 323 319 320 319 321 352
303 307 317 311 307 307 308 309 309 309 310 312 316 320 328 333 336 337 341 333 325 319 316 314 313 312 312 311 315 318 320 318 318 318 318 321 324 322 317 317 318 323 346
306 311 319 320 312 306 306 305 305 307 308 308 309 316 330 330 327 326 328 327 323 318 317 314 314 315 314 315 315 314 313 312 310 313 317 321 321 320 323 322 322 323 98
306 307 310 305 306 306 306 303 302 301 304 308 313 318 328 332 326 324 323 322 319 312 308 306 306 304 302 303 307 308 306 307 310 313 315 316 318 316 325 334 344 39 108
315 308 309 309 308 309 315 312 308 307 309 311 314 317 323 325 324 323 322 322 322 319 317 313 308 308 307 305 300 291 290 293 295 292 295 302 309 306 297 282 260 155 138
314 303 302 309 312 310 308 308 308 310 312 313 315 317 319 320 321 321 322 323 324 324 323 320 312 308 309 312 310 304 294 291 293 292 286 281 291 282 267 241 191 149 135
323 312 308 307 306 305 305 307 310 312 314 315 316 317 318 320 321 321 323 325 326 328 328 328 323 320 320 316 312 309 311 314 314 321 314 301 288 252 198 177 149 132 122
328 318 313 311 306 303 303 306 309 311 312 313 314 315 315 317 319 322 325 328 330 330 329 329 328 325 320 320 318 320 324 327 333 337 353 345 40 126 153 150 141 134 133
Height
1439 1440 1441 1441 1441 1441 1441 1440 1440 1439 1438 1436 1435 1433 1432 1430 1429 1428 1427 1426 1425 1424 1424 1423 1421 1421 1420 1419 1418 1418 1417 1415 1411 1406 1406 1405 1404 1402 1401 1400 1398 1397 1395
1437 1437 1438 1438 1438 1437 1437 1437 1436 1434 1433 1431 1430 1428 1426 1425 1423 1422 1421 1420 1419 1418 1417 1416 1415 1414 1413 1412 1411 1410 1410 1408 1406 1400 1398 1398 1396 1395 1393 1392 1390 1389 1387
1434 1434 1434 1435 1435 1434 1434 1433 1432 1430 1428 1426 1424 1422 1420 1419 1417 1416 1415 1414 1412 1411 1410 1409 1408 1407 1406 1405 1404 1403 1402 1401 1399 1396 1392 1391 1389 1388 1386 1384 1383 1381 1380
1431 1431 1431 1432 1432 1431 1430 1429 1427 1425 1423 1421 1419 1417 1415 1413 1411 1410 1408 1407 1406 1405 1404 1403 1402 1401 1399 1398 1397 1396 1395 1394 1392 1390 1386 1384 1382 1381 1380 1377 1375 1373 1372
1428 1428 1428 1429 1428 1427 1426 1425 1423 1421 1419 1416 1414 1412 1409 1407 1406 1404 1403 1401 1400 1399 1398 1396 1395 1394 1393 1392 1391 1389 1388 1387 1385 1383 1380 1378 1376 1374 1373 1372 1369 1367 1365
1424 1425 1425 1425 1425 1424 1422 1421 1419 1416 1414 1412 1410 1407 1405 1402 1401 1399 1398 1396 1394 1393 1391 1390 1389 1387 1386 1385 1384 1383 1382 1380 1378 1377 1374 1372 1370 1369 1367 1366 1364 1362 1358
1421 1422 1422 1422 1421 1420 1419 1417 1415 1412 1410 1407 1405 1403 1400 1398 1396 1394 1392 1391 1389 1387 1385 1384 1382 1381 1380 1378 1377 1376 1375 1374 1373 1371 1368 1366 1364 1363 1362 1360 1358 1356 1354
1419 1419 1419 1418 1418 1417 1415 1413 1411 1408 1406 1403 1401 1398 1395 1393 1391 1389 1387 1385 1383 1381 1380 1378 1376 1374 1373 1372 1370 1368 1367 1366 1365 1364 1362 1360 1359 1357 1356 1355 1353 1351 1349
1416 1416 1416 1415 1414 1413 1411 1409 1407 1404 1401 1399 1396 1393 1391 1388 1386 1384 1382 1380 1378 1376 1374 1372 1370 1369 1367 1366 1365 1362 1360 1359 1358 1357 1356 1354 1352 1351 1350 1349 1347 1345 1342
1414 1414 1413 1412 1411 1409 1407 1405 1403 1400 1397 1394 1391 1389 1386 1384 1381 1379 1377 1375 1372 1370 1368 1367 1365 1363 1362 1361 1359 1357 1354 1353 1351 1349 1348 1347 1346 1345 1344 1343 1341 1340 1338
1411 1411 1410 1409 1407 1406 1404 1401 1399 1396 1393 1390 1387 1384 1382 1379 1377 1375 1373 1370 1368 1365 1363 1361 1359 1358 1356 1355 1354 1352 1350 1348 1346 1344 1342 1341 1340 1338 1337 1337 1336 1335 1334
1408 1407 1407 1405 1404 1402 1400 1398 1396 1393 1389 1386 1383 1380 1378 1376 1373 1370 1368 1366 1364 1362 1359 1357 1354 1353 1351 1350 1348 1346 1345 1343 1341 1339 1337 1335 1334 1333 1332 1331 1331 1331 1330
1405 1404 1403 1402 1401 1399 1397 1394 1392 1389 1386 1383 1380 1377 1374 1371 1369 1367 1364 1362 1360 1357 1354 1352 1350 1348 1346 1344 1343 1341 1340 1338 1336 1334 1332 1331 1330 1329 1328 1327 1326 1325 1325
1402 1401 1400 1399 1397 1395 1393 1391 1389 1386 1383 1380 1377 1374 1371 1368 1365 1363 1360 1358 1355 1352 1350 1348 1346 1343 1342 1340 1338 1337 1335 1333 1332 1330 1328 1327 1326 1325 1324 1323 1321 1321 1320
1400 1399 1397 1396 1394 1392 1390 1388 1386 1383 1381 1378 1375 1372 1369 1365 1363 1361 1358 1354 1351 1349 1346 1343 1341 1339 1337 1335 1334 1332 1331 1329 1328 1327 1325 1323 1322 1321 1320 1319 1318 1318 1317
1397 1396 1394 1393 1391 1389 1387 1384 1382 1380 1378 1375 1372 1370 1366 1364 1360 1357 1354 1351 1348 1346 1343 1340 1338 1336 1334 1332 1330 1329 1327 1326 1325 1323 1322 1321 1319 1318 1317 1316 1316 1315 1314
1394 1393 1391 1389 1388 1386 1383 1381 1378 1376 1374 1372 1369 1366 1363 1360 1357 1353 1351 1348 1345 1342 1340 1337 1335 1333 1332 1330 1328 1326 1324 1323 1322 1321 1320 1318 1317 1316 1315 1314 1313 1313 1312
1391 1390 1388 1387 1385 1383 1381 1378 1376 1373 1370 1367 1366 1363 1360 1357 1354 1351 1348 1345 1342 1340 1337 1335 1333 1332 1330 1328 1326 1324 1322 1321 1320 1318 1317 1316 1315 1314 1313 1312 1311 1311 1311
1388 1387 1385 1384 1382 1380 1378 1376 1374 1371 1368 1365 1362 1359 1357 1354 1351 1349 1346 1343 1340 1338 1336 1334 1332 1330 1328 1326 1324 1322 1321 1319 1318 1317 1315 1314 1313 1312 1311 1310 1310 1310 1310
1385 1384 1383 1381 1379 1377 1375 1373 1371 1369 1366 1363 1360 1357 1354 1351 1348 1346 1344 1341 1339 1336 1334 1332 1330 1328 1326 1324 1323 1321 1319 1318 1316 1315 1314 1313 1312 1311 1310 1309 1309 1309 1309
1382 1381 1380 1378 1377 1375 1373 1371 1369 1367 1364 1361 1359 1356 1354 1351 1348 1345 1342 1340 1337 1335 1333 1331 1329 1327 1325 1323 1321 1320 1318 1316 1315 1314 1312 1311 1310 1309 1309 1308 1308 1308 1308
1380 1378 1377 1376 1374 1372 1371 1369 1367 1364 1362 1360 1357 1355 1352 1350 1347 1344 1341 1338 1336 1334 1332 1330 1328 1326 1324 1322 1320 1319 1317 1315 1314 1313 1311 1310 1309 1308 1308 1307 1307 1307 1308
1377 1376 1374 1373 1372 1370 1368 1366 1364 1362 1360 1358 1355 1353 1351 1348 1345 1343 1340 1337 1335 1332 1330 1328 1326 1324 1322 1321 1319 1318 1316 1314 1313 1312 1310 1309 1308 1307 1307 1307 1307 1307 1308
1375 1373 1372 1370 1369 1367 1365 1364 1362 1360 1358 1356 1354 1351 1349 1346 1344 1341 1339 1336 1333 1331 1329 1327 1325 1323 1321 1319 1318 1316 1315 1314 1312 1311 1310 1309 1308 1307 1307 1306 1307 1307 1308
1372 1371 1369 1368 1366 1365 1363 1361 1360 1358 1356 1354 1352 1350 1347 1345 1342 1340 1337 1335 1332 1330 1328 1326 1324 1322 1320 1318 1317 1315 1314 1313 1312 1311 1309 1308 1307 1307 1307 1307 1307 1307 1308
1369 1368 1367 1365 1364 1362 1361 1359 1357 1356 1354 1353 1350 1348 1346 1343 1341 1339 1336 1334 1331 1329 1327 1325 1323 1321 1320 1318 1316 1315 1313 1312 1311 1310 1309 1308 1307 1307 1307 1307 1307 1308 1309